Regional Weather Roundup
Issued by NWS Upton, NY

Current Version | Previous Version | Graphics & Text | Print | Product List | Glossary Off
Versions: 1 2 3 4 5 6 7 8 9 10 11 12 13 14 15 16 17 18 19 20 21 22 23 24 25 26 27 28 29 30 31 32 33 34 35 36 37 38 39 40 41 42 43 44 45 46 47 48 49 50

000
ASUS41 KOKX 232218
RWROKX

REGIONAL WEATHER ROUNDUP
NATIONAL WEATHER SERVICE NEW YORK NY
600 PM EDT SAT MAY 23 2015

NOTE: "FAIR" INDICATES FEW OR NO CLOUDS BELOW 12,000 FEET WITH NO
SIGNIFICANT WEATHER AND/OR OBSTRUCTIONS TO VISIBILITY.

NYZ071-072-176-178-NJZ106-104-232300-
NEW YORK CITY METRO AREA


CITY           SKY/WX    TMP DP  RH WIND       PRES   REMARKS
CENTRAL PARK   SUNNY     69  27  20 W8        30.35F
LAGUARDIA APRT SUNNY     66  32  28 S15       30.33S
KENNEDY INTL   SUNNY     60  39  45 S18       30.36S
NEWARK/LIBERTY MOSUNNY   72  27  18 W12       30.33F
BRNX BOT. GARD   N/A     70  27  19 W2        30.34S
TETERBORO      SUNNY     70  24  17 W9G16     30.32S
$$

NYZ177-179-078>081-232300-
LONG ISLAND NEW YORK

CITY           SKY/WX    TMP DP  RH WIND       PRES   REMARKS
FARMINGDALE    SUNNY     62  37  39 SW15      30.35S
ISLIP          MOSUNNY   64  29  26 S15       30.33F
SHIRLEY        SUNNY     62  35  36 S9        30.35F
WESTHAMPTON    SUNNY     59  35  40 SW12G20   30.37S
MONTAUK POINT    N/A     58  40  51 SW9       30.35S
$$

NYZ052-065-067-232300-
HUDSON VALLEY

CITY           SKY/WX    TMP DP  RH WIND       PRES   REMARKS
WHITE PLAINS   SUNNY     66  27  23 NW12      30.32F
NEWBURGH       SUNNY     66  30  26 W12G23    30.33S
MONTGOMERY     SUNNY     67  28  23 VRB5      30.31F
POUGHKEEPSIE   SUNNY     68  27  21 W13G21    30.30F
ALBANY         MOSUNNY   63  26  24 W12G22    30.32F
$$

NJZ001-105-106-008-010-013-015-019>022-104-232300-
NEW JERSEY

CITY           SKY/WX    TMP DP  RH WIND       PRES   REMARKS
NEWARK/LIBERTY MOSUNNY   72  27  18 W12       30.33F
TETERBORO      SUNNY     70  24  17 W9G16     30.32S
CALDWELL       SUNNY     69  23  17 W5        30.33F
MORRISTOWN     MOSUNNY   70  25  18 W7G14     30.34S
SOMERVILLE     SUNNY     69  27  20 VRB5      30.32F
SUSSEX         SUNNY     68  26  20 VRB3      30.34F
ANDOVER          N/A     68  24  19 SW6       30.33F
TRENTON        SUNNY     69  28  21 W9        30.35F
MILLVILLE      SUNNY     68  31  25 W8        30.38F
ATLANTIC CITY  SUNNY     65  45  48 E8        30.37S
WRIGHTSTOWN    SUNNY     68  27  21 W7        30.34S
TOMS RIVER     SUNNY    N/A N/A N/A S9        30.36F
BELMAR         SUNNY     61  39  44 S8        30.37S
$$

PAZ047>061-062-071-232300-
EASTERN PENNSYLVANIA

CITY           SKY/WX    TMP DP  RH WIND       PRES   REMARKS
PHILADELPHIA   MOSUNNY   70  27  20 SW12      30.37S
ALLENTOWN      SUNNY     70  26  19 W8        30.34F
SCRANTON       SUNNY     67  29  24 SW9       30.34S
$$

CTZ002-004>006-009-010-012-RIZ004-006-007-MAZ004-011-015-232300-
SOUTHERN NEW ENGLAND
 IN CT

CITY           SKY/WX    TMP DP  RH WIND       PRES   REMARKS
BRADLEY INTL   SUNNY     67  24  19 W12       30.29F
HARTFORD       SUNNY     66  25  21 SW12G22   30.30F
DANBURY        SUNNY     64  26  23 W9        30.33F
WTRBRY/OXFORD  SUNNY     63  28  27 MISG      30.33F
BRIDGEPORT     SUNNY     63  35  35 S12       30.33F
MERIDEN        SUNNY     66  26  22 NW9       30.31F
NEW HAVEN      SUNNY     60  34  37 SW9       30.33S
CHESTER        FAIR      61  32  33 S9        30.32F
GROTON         SUNNY     58  32  37 SW15G22   30.32S
WILLIMANTIC    SUNNY     65  22  19 W8G18     30.30F

 IN RI

CITY           SKY/WX    TMP DP  RH WIND       PRES   REMARKS
PROVIDENCE     SUNNY     65  22  19 W14       30.29S
BLOCK ISLAND   SUNNY     55  39  54 SW14G20   30.34S
WESTERLY       SUNNY     60  30  32 SW10      30.33S

 IN MA

CITY           SKY/WX    TMP DP  RH WIND       PRES   REMARKS
BOSTON         SUNNY     64  22  20 W13       30.26S
WORCESTER      SUNNY     61  22  22 W16       30.28F
WESTFIELD      SUNNY     66  21  18 W9        30.29F
PROVINCETOWN   SUNNY     57  36  44 S10       30.29S
NANTUCKET      SUNNY     55  36  48 SW21      30.32F
$$

ANZ330-335-338-340-345-350-353-355-232300-
COASTAL MARINE OBSERVATIONS


STATION/POSITION TIME  SKY/WX   TEMP    WIND        PRES    VSBY  WAVE
                                AIR SEA DIR/SP/G                  HT/PER
                 (UTC)          (F)     (DEG/KT/KT) (MB)    (MI)  (FT/S)
NY HARB ENTRANCE 2150            55 56  200/ 16/ 17 1027.9          2/ 8
4S FIRE IS       2103               53                N/A           2/ 8
20S FIRE ISLAND  2150            54 56  200/ 12/ 16 1028.3          2/ 8
GREAT SOUTH BAY  2100            58 64  220/ 14/ 16   N/A
23SW MTP         2150            53 53  240/ 14/ 16 1027.9          2/ 6
HUDSON CANYON    NOT AVBL
KINGS POINT      2100            64 54  270/ 11/ 12 1026.7
CENTRAL LI SOUND 2100            56 52  220/  8/  8   N/A
EASTERN LI SOUND 2100            55     250/ 14/ 17   N/A
ROBBINS REEF     2100            65     240/ 10/ 13 1026.3
$$


>>>>>>>>>>>>>>>>>>>>>>>>>>>> KEY <<<<<<<<<<<<<<<<<<<<<<<<<<<
>                                                          <
>     SKY/WX - SKY CONDITION/PRESENT WEATHER               <
>     TMP    - TEMPERATURE IN FAHRENHEIT                   <
>     DP     - DEWPOINT IN FAHRENHEIT                      <
>     RH     - RELATIVE HUMIDITY IN PERCENT                <
>     WIND   - DIRECTION AND SPEED IN MPH                  <
>     PRES   - MEAN SEA LEVEL PRESSURE IN INCHES OF HG     <
>     WCI    - WIND CHILL INDEX                            <
>     VSB    - VISIBILITY IN MILES                         <
>     HX     - HEAT INDEX                                  <
>     TC     - TEMPERATURE IN CELSIUS                      <
>     VRB    - VARIABLE WIND DIRECTION                     <
>                                                          <
>>>>>>>>>>>>>>>>>>>>>>>>>>>> KEY <<<<<<<<<<<<<<<<<<<<<<<<<<<




USA.gov is the U.S. government's official web portal to all federal, state and local government web resources and services.